This is the latest recevied weather packets stored in our database for station/object K3HW. If no packets are shown the sender has not sent any weather packets the latest 10 day(s).
| Time | Temp. | Humidity | Pressure | Rain* | Wind** | Luminosity | Snow |
|---|---|---|---|---|---|---|---|
| 1777417270 | 15° C | 59% | 1021.7 hPa | 0 mm | - | 9 W/m² | - |
| 1777416967 | 15° C | 60% | 1021.6 hPa | 0 mm | - | 14 W/m² | - |
| 1777416667 | 15° C | 60% | 1021.6 hPa | 0 mm | - | 16 W/m² | - |
| 1777416363 | 15° C | 59% | 1021.6 hPa | 0 mm | - | 17 W/m² | - |
| 1777416062 | 15° C | 58% | 1021.7 hPa | 0 mm | - | 15 W/m² | - |
| 1777415758 | 15° C | 58% | 1021.6 hPa | 0 mm | - | 18 W/m² | - |
| 1777415454 | 15° C | 59% | 1021.9 hPa | 0 mm | - | 16 W/m² | - |
| 1777415150 | 15° C | 58% | 1021.8 hPa | 0 mm | - | 13 W/m² | - |
| 1777414845 | 15° C | 57% | 1021.9 hPa | 0 mm | - | 16 W/m² | - |
| 1777414545 | 15° C | 58% | 1021.8 hPa | 0 mm | - | 19 W/m² | - |
| 1777414245 | 15° C | 58% | 1021.8 hPa | 0 mm | - | 19 W/m² | - |
| 1777413940 | 15° C | 57% | 1021.6 hPa | 0 mm | - | 19 W/m² | - |
| 1777413635 | 15° C | 57% | 1021.8 hPa | 0 mm | - | 21 W/m² | - |
| 1777413332 | 15° C | 57% | 1021.8 hPa | 0 mm | - | 23 W/m² | - |
| 1777413028 | 15.56° C | 58% | 1021.8 hPa | 0 mm | - | 18 W/m² | - |
| 1777412728 | 15.56° C | 56% | 1021.7 hPa | 0 mm | - | 22 W/m² | - |
| 1777412426 | 15.56° C | 55% | 1021.7 hPa | 0 mm | - | 31 W/m² | - |
| 1777412125 | 15.56° C | 55% | 1021.7 hPa | 0 mm | - | 26 W/m² | - |
| 1777411821 | 15.56° C | 57% | 1021.9 hPa | 0 mm | - | 27 W/m² | - |
| 1777411520 | 15.56° C | 54% | 1022 hPa | 0 mm | - | 27 W/m² | - |
| 1777411215 | 15.56° C | 55% | 1021.9 hPa | 0 mm | - | 29 W/m² | - |
| 1777410915 | 15.56° C | 55% | 1021.9 hPa | 0 mm | - | 29 W/m² | - |
| 1777410614 | 15.56° C | 53% | 1021.8 hPa | 0 mm | - | 34 W/m² | - |
| 1777410309 | 15.56° C | 55% | 1021.8 hPa | 0 mm | - | 33 W/m² | - |
| 1777410004 | 15.56° C | 53% | 1021.8 hPa | 0 mm | - | 28 W/m² | - |
* Rain latest hour (hover to see other rain measurements)
** Current wind speed in m/s (hover to see current wind gust speed)